Voltar ao catálogo

USA 421

AtivoMilitarVLEO
NORAD 61644·PAYLOAD·🇺🇸 United States

Lançado Oct 24, 2024 de Vandenberg Space Force Base

Loading…

Próximas Passagens (próximas 24 horas)

TLE

ObsoletoSource: Mike McCants

Época: Aug 14, 2026, 19:51 UTC

1 61644U 24192A   26226.82765957 0.00000000  00000-0  00000-0 0    09
2 61644  70.0200 119.8406 0002000 234.8146 125.1854 14.96713514    08

Acompanhe USA 421 em tempo real com AllMySat

Download on the App Store